Year,Month,Day,Hour,Minute,Value (Times are PST for temperature in C)
2018,04,23,00,00,7.00
2018,04,23,00,01,7.00
2018,04,23,00,02,7.00
2018,04,23,00,03,7.00
2018,04,23,00,04,7.00
2018,04,23,00,05,7.10
2018,04,23,00,06,7.10
2018,04,23,00,07,7.10
2018,04,23,00,08,7.10
2018,04,23,00,09,7.00
2018,04,23,00,10,7.00
2018,04,23,00,11,7.00
2018,04,23,00,12,7.00
2018,04,23,00,13,7.10
2018,04,23,00,14,7.10
2018,04,23,00,15,7.20
2018,04,23,00,16,7.20
2018,04,23,00,17,7.10
2018,04,23,00,18,7.10
2018,04,23,00,19,7.10
2018,04,23,00,20,7.10
2018,04,23,00,21,7.10
2018,04,23,00,22,7.10
2018,04,23,00,23,7.10
2018,04,23,00,24,7.10
2018,04,23,00,25,7.10
2018,04,23,00,26,7.10
2018,04,23,00,27,7.10
2018,04,23,00,28,7.10
2018,04,23,00,29,7.10
2018,04,23,00,30,7.10
2018,04,23,00,31,7.10
2018,04,23,00,32,7.10
2018,04,23,00,33,7.10
2018,04,23,00,34,7.10
2018,04,23,00,35,7.10
2018,04,23,00,36,7.10
2018,04,23,00,37,7.20
2018,04,23,00,38,7.20
2018,04,23,00,39,7.20
2018,04,23,00,40,7.30
2018,04,23,00,41,7.30
2018,04,23,00,42,7.30
2018,04,23,00,43,7.30
2018,04,23,00,44,7.30
2018,04,23,00,45,7.30
2018,04,23,00,46,7.30
2018,04,23,00,47,7.30
2018,04,23,00,48,7.30
2018,04,23,00,49,7.30
2018,04,23,00,50,7.20
2018,04,23,00,51,7.20
2018,04,23,00,52,7.20
2018,04,23,00,53,7.20
2018,04,23,00,54,7.10
2018,04,23,00,55,7.10
2018,04,23,00,56,7.10
2018,04,23,00,57,7.10
2018,04,23,00,58,7.10
2018,04,23,00,59,7.00
2018,04,23,01,00,7.10
2018,04,23,01,01,7.00
2018,04,23,01,02,7.00
2018,04,23,01,03,7.00
2018,04,23,01,04,7.00
2018,04,23,01,05,7.00
2018,04,23,01,06,7.10
2018,04,23,01,07,7.10
2018,04,23,01,08,7.00
2018,04,23,01,09,7.00
2018,04,23,01,10,7.00
2018,04,23,01,11,6.90
2018,04,23,01,12,6.90
2018,04,23,01,13,6.80
2018,04,23,01,14,6.80
2018,04,23,01,15,6.70
2018,04,23,01,16,6.60
2018,04,23,01,17,6.60
2018,04,23,01,18,6.60
2018,04,23,01,19,6.50
2018,04,23,01,20,6.40
2018,04,23,01,21,6.40
2018,04,23,01,22,6.40
2018,04,23,01,23,6.30
2018,04,23,01,24,6.30
2018,04,23,01,25,6.20
2018,04,23,01,26,6.20
2018,04,23,01,27,6.10
2018,04,23,01,28,6.10
2018,04,23,01,29,6.10
2018,04,23,01,30,6.00
2018,04,23,01,31,6.00
2018,04,23,01,32,6.00
2018,04,23,01,33,5.90
2018,04,23,01,34,5.90
2018,04,23,01,35,5.90
2018,04,23,01,36,5.80
2018,04,23,01,37,5.80
2018,04,23,01,38,5.80
2018,04,23,01,39,5.80
2018,04,23,01,40,5.80
2018,04,23,01,41,5.70
2018,04,23,01,42,5.70
2018,04,23,01,43,5.70
2018,04,23,01,44,5.70
2018,04,23,01,45,5.70
2018,04,23,01,46,5.70
2018,04,23,01,47,5.70
2018,04,23,01,48,5.60
2018,04,23,01,49,5.60
2018,04,23,01,50,5.60
2018,04,23,01,51,5.60
2018,04,23,01,52,5.50
2018,04,23,01,53,5.50
2018,04,23,01,54,5.50
2018,04,23,01,55,5.50
2018,04,23,01,56,5.50
2018,04,23,01,57,5.50
2018,04,23,01,58,5.40
2018,04,23,01,59,5.40
2018,04,23,02,00,5.40
2018,04,23,02,01,5.40
2018,04,23,02,02,5.40
2018,04,23,02,03,5.40
2018,04,23,02,04,5.30
2018,04,23,02,05,5.30
2018,04,23,02,06,5.30
2018,04,23,02,07,5.30
2018,04,23,02,08,5.30
2018,04,23,02,09,5.30
2018,04,23,02,10,5.30
2018,04,23,02,11,5.30
2018,04,23,02,12,5.30
2018,04,23,02,13,5.30
2018,04,23,02,14,5.30
2018,04,23,02,15,5.40
2018,04,23,02,16,5.40
2018,04,23,02,17,5.40
2018,04,23,02,18,5.40
2018,04,23,02,19,5.50
2018,04,23,02,20,5.50
2018,04,23,02,21,5.60
2018,04,23,02,22,5.60
2018,04,23,02,23,5.60
2018,04,23,02,24,5.70
2018,04,23,02,25,5.70
2018,04,23,02,26,5.70
2018,04,23,02,27,5.70
2018,04,23,02,28,5.70
2018,04,23,02,29,5.70
2018,04,23,02,30,5.70
2018,04,23,02,31,5.60
2018,04,23,02,32,5.60
2018,04,23,02,33,5.60
2018,04,23,02,34,5.60
2018,04,23,02,35,5.50
2018,04,23,02,36,5.50
2018,04,23,02,37,5.40
2018,04,23,02,38,5.40
2018,04,23,02,39,5.40
2018,04,23,02,40,5.30
2018,04,23,02,41,5.30
2018,04,23,02,42,5.30
2018,04,23,02,43,5.20
2018,04,23,02,44,5.20
2018,04,23,02,45,5.20
2018,04,23,02,46,5.10
2018,04,23,02,47,5.10
2018,04,23,02,48,5.10
2018,04,23,02,49,5.10
2018,04,23,02,50,5.10
2018,04,23,02,51,5.10
2018,04,23,02,52,5.10
2018,04,23,02,53,5.10
2018,04,23,02,54,5.10
2018,04,23,02,55,5.10
2018,04,23,02,56,5.10
2018,04,23,02,57,5.10
2018,04,23,02,58,5.10
2018,04,23,02,59,5.20
2018,04,23,03,00,5.20
2018,04,23,03,01,5.20
2018,04,23,03,02,5.20
2018,04,23,03,06,5.30
2018,04,23,03,07,5.30
2018,04,23,03,08,5.30
2018,04,23,03,09,5.30
2018,04,23,03,10,5.40
2018,04,23,03,11,5.40
2018,04,23,03,12,5.40
2018,04,23,03,13,5.40
2018,04,23,03,14,5.40
2018,04,23,03,15,5.50
2018,04,23,03,16,5.50
2018,04,23,03,17,5.50
2018,04,23,03,18,5.50
2018,04,23,03,19,5.50
2018,04,23,03,20,5.50
2018,04,23,03,21,5.50
2018,04,23,03,22,5.50
2018,04,23,03,23,5.50
2018,04,23,03,24,5.50
2018,04,23,03,25,5.50
2018,04,23,03,26,5.40
2018,04,23,03,27,5.40
2018,04,23,03,28,5.40
2018,04,23,03,29,5.40
2018,04,23,03,30,5.40
2018,04,23,03,31,5.40
2018,04,23,03,32,5.30
2018,04,23,03,33,5.30
2018,04,23,03,34,5.30
2018,04,23,03,35,5.30
2018,04,23,03,36,5.30
2018,04,23,03,37,5.20
2018,04,23,03,38,5.20
2018,04,23,03,39,5.20
2018,04,23,03,40,5.20
2018,04,23,03,41,5.20
2018,04,23,03,42,5.20
2018,04,23,03,43,5.20
2018,04,23,03,44,5.20
2018,04,23,03,45,5.20
2018,04,23,03,46,5.20
2018,04,23,03,47,5.30
2018,04,23,03,48,5.30
2018,04,23,03,49,5.40
2018,04,23,03,50,5.50
2018,04,23,03,51,5.60
2018,04,23,03,52,5.70
2018,04,23,03,53,5.70
2018,04,23,03,54,5.80
2018,04,23,03,55,5.80
2018,04,23,03,56,5.90
2018,04,23,03,57,5.90
2018,04,23,03,58,5.90
2018,04,23,03,59,5.90
2018,04,23,04,00,5.90
2018,04,23,04,01,5.90
2018,04,23,04,02,5.90
2018,04,23,04,03,5.80
2018,04,23,04,04,5.80
2018,04,23,04,05,5.80
2018,04,23,04,06,5.90
2018,04,23,04,07,5.90
2018,04,23,04,08,5.90
2018,04,23,04,09,5.90
2018,04,23,04,10,5.90
2018,04,23,04,11,5.90
2018,04,23,04,12,5.90
2018,04,23,04,13,5.90
2018,04,23,04,14,5.90
2018,04,23,04,15,5.90
2018,04,23,04,16,5.90
2018,04,23,04,17,5.90
2018,04,23,04,18,5.90
2018,04,23,04,19,6.00
2018,04,23,04,20,6.00
2018,04,23,04,21,6.00
2018,04,23,04,22,6.00
2018,04,23,04,23,6.10
2018,04,23,04,24,6.10
2018,04,23,04,25,6.10
2018,04,23,04,26,6.10
2018,04,23,04,27,6.20
2018,04,23,04,28,6.20
2018,04,23,04,29,6.20
2018,04,23,04,30,6.20
2018,04,23,04,31,6.20
2018,04,23,04,32,6.20
2018,04,23,04,33,6.20
2018,04,23,04,34,6.20
2018,04,23,04,35,6.20
2018,04,23,04,36,6.20
2018,04,23,04,37,6.20
2018,04,23,04,38,6.20
2018,04,23,04,39,6.20
2018,04,23,04,40,6.20
2018,04,23,04,41,6.10
2018,04,23,04,42,6.10
2018,04,23,04,43,6.00
2018,04,23,04,44,6.00
2018,04,23,04,45,6.00
2018,04,23,04,46,5.90
2018,04,23,04,47,5.90
2018,04,23,04,48,5.90
2018,04,23,04,49,5.90
2018,04,23,04,50,5.80
2018,04,23,04,51,5.80
2018,04,23,04,52,5.80
2018,04,23,04,53,5.70
2018,04,23,04,54,5.70
2018,04,23,04,55,5.70
2018,04,23,04,56,5.70
2018,04,23,04,57,5.70
2018,04,23,04,58,5.70
2018,04,23,04,59,5.70
2018,04,23,05,00,5.70
2018,04,23,05,01,5.70
2018,04,23,05,02,5.70
2018,04,23,05,03,5.70
2018,04,23,05,04,5.70
2018,04,23,05,05,5.70
2018,04,23,05,06,5.60
2018,04,23,05,07,5.60
2018,04,23,05,08,5.60
2018,04,23,05,09,5.60
2018,04,23,05,10,5.60
2018,04,23,05,11,5.50
2018,04,23,05,12,5.50
2018,04,23,05,13,5.50
2018,04,23,05,14,5.50
2018,04,23,05,15,5.50
2018,04,23,05,16,5.50
2018,04,23,05,17,5.50
2018,04,23,05,18,5.50
2018,04,23,05,19,5.50
2018,04,23,05,20,5.60
2018,04,23,05,21,5.60
2018,04,23,05,22,5.60
2018,04,23,05,23,5.60
2018,04,23,05,24,5.60
2018,04,23,05,25,5.60
2018,04,23,05,26,5.60
2018,04,23,05,27,5.60
2018,04,23,05,28,5.50
2018,04,23,05,29,5.50
2018,04,23,05,30,5.50
2018,04,23,05,31,5.50
2018,04,23,05,32,5.40
2018,04,23,05,33,5.40
2018,04,23,05,34,5.30
2018,04,23,05,35,5.30
2018,04,23,05,36,5.30
2018,04,23,05,37,5.30
2018,04,23,05,38,5.30
2018,04,23,05,39,5.30
2018,04,23,05,40,5.20
2018,04,23,05,41,5.20
2018,04,23,05,42,5.10
2018,04,23,05,43,5.10
2018,04,23,05,44,5.00
2018,04,23,05,45,5.00
2018,04,23,05,46,4.90
2018,04,23,05,47,4.90
2018,04,23,05,48,4.90
2018,04,23,05,49,4.80
2018,04,23,05,50,4.80
2018,04,23,05,51,4.80
2018,04,23,05,52,4.80
2018,04,23,05,53,4.70
2018,04,23,05,54,4.70
2018,04,23,05,55,4.70
2018,04,23,05,56,4.70
2018,04,23,05,57,4.70
2018,04,23,05,58,4.70
2018,04,23,05,59,4.70
2018,04,23,06,00,4.60
2018,04,23,06,01,4.70
2018,04,23,06,02,4.70
2018,04,23,06,03,4.70
2018,04,23,06,04,4.70
2018,04,23,06,05,4.70
2018,04,23,06,06,4.70
2018,04,23,06,07,4.70
2018,04,23,06,08,4.70
2018,04,23,06,09,4.70
2018,04,23,06,10,4.70
2018,04,23,06,11,4.70
2018,04,23,06,12,4.70
2018,04,23,06,13,4.70
2018,04,23,06,14,4.70
2018,04,23,06,15,4.70
2018,04,23,06,16,4.70
2018,04,23,06,17,4.60
2018,04,23,06,18,4.60
2018,04,23,06,19,4.60
2018,04,23,06,20,4.60
2018,04,23,06,21,4.50
2018,04,23,06,22,4.50
2018,04,23,06,23,4.50
2018,04,23,06,24,4.50
2018,04,23,06,25,4.40
2018,04,23,06,26,4.40
2018,04,23,06,27,4.40
2018,04,23,06,28,4.40
2018,04,23,06,29,4.40
2018,04,23,06,30,4.40
2018,04,23,06,31,4.40
2018,04,23,06,32,4.40
2018,04,23,06,33,4.40
2018,04,23,06,34,4.30
2018,04,23,06,35,4.30
2018,04,23,06,36,4.40
2018,04,23,06,37,4.40
2018,04,23,06,38,4.40
2018,04,23,06,39,4.40
2018,04,23,06,40,4.40
2018,04,23,06,41,4.40
2018,04,23,06,42,4.40
2018,04,23,06,43,4.40
2018,04,23,06,44,4.40
2018,04,23,06,45,4.40
2018,04,23,06,46,4.40
2018,04,23,06,47,4.40
2018,04,23,06,48,4.40
2018,04,23,06,49,4.40
2018,04,23,06,50,4.40
2018,04,23,06,51,4.50
2018,04,23,06,52,4.50
2018,04,23,06,53,4.50
2018,04,23,06,54,4.50
2018,04,23,06,55,4.50
2018,04,23,06,56,4.50
2018,04,23,06,57,4.50
2018,04,23,06,58,4.60
2018,04,23,06,59,4.60
2018,04,23,07,00,4.60
2018,04,23,07,01,4.60
2018,04,23,07,02,4.60
2018,04,23,07,03,4.70
2018,04,23,07,04,4.70
2018,04,23,07,05,4.70
2018,04,23,07,06,4.70
2018,04,23,07,07,4.80
2018,04,23,07,08,4.80
2018,04,23,07,09,4.80
2018,04,23,07,10,4.80
2018,04,23,07,11,4.90
2018,04,23,07,12,4.90
2018,04,23,07,13,4.90
2018,04,23,07,14,5.00
2018,04,23,07,15,5.00
2018,04,23,07,16,5.10
2018,04,23,07,17,5.10
2018,04,23,07,18,5.10
2018,04,23,07,19,5.20
2018,04,23,07,20,5.20
2018,04,23,07,21,5.20
2018,04,23,07,22,5.30
2018,04,23,07,23,5.30
2018,04,23,07,24,5.40
2018,04,23,07,25,5.40
2018,04,23,07,26,5.40
2018,04,23,07,27,5.50
2018,04,23,07,28,5.50
2018,04,23,07,29,5.60
2018,04,23,07,30,5.60
2018,04,23,07,31,5.70
2018,04,23,07,32,5.70
2018,04,23,07,33,5.70
2018,04,23,07,34,5.80
2018,04,23,07,35,5.80
2018,04,23,07,36,5.90
2018,04,23,07,37,5.90
2018,04,23,07,38,6.00
2018,04,23,07,39,6.00
2018,04,23,07,40,6.10
2018,04,23,07,41,6.10
2018,04,23,07,42,6.20
2018,04,23,07,43,6.20
2018,04,23,07,44,6.20
2018,04,23,07,45,6.30
2018,04,23,07,46,6.30
2018,04,23,07,47,6.40
2018,04,23,07,48,6.50
2018,04,23,07,49,6.50
2018,04,23,07,50,6.60
2018,04,23,07,51,6.60
2018,04,23,07,52,6.70
2018,04,23,07,53,6.70
2018,04,23,07,54,6.80
2018,04,23,07,55,6.80
2018,04,23,07,56,6.90
2018,04,23,07,57,6.90
2018,04,23,07,58,7.00
2018,04,23,07,59,7.10
2018,04,23,08,00,7.10
2018,04,23,08,01,7.20
2018,04,23,08,02,7.30
2018,04,23,08,03,7.30
2018,04,23,08,04,7.40
2018,04,23,08,05,7.50
2018,04,23,08,06,7.60
2018,04,23,08,07,7.60
2018,04,23,08,08,7.70
2018,04,23,08,09,7.80
2018,04,23,08,10,7.80
2018,04,23,08,11,7.90
2018,04,23,08,12,7.90
2018,04,23,08,13,8.00
2018,04,23,08,14,8.10
2018,04,23,08,15,8.20
2018,04,23,08,16,8.20
2018,04,23,08,17,8.30
2018,04,23,08,18,8.40
2018,04,23,08,19,8.40
2018,04,23,08,20,8.50
2018,04,23,08,21,8.60
2018,04,23,08,22,8.70
2018,04,23,08,23,8.80
2018,04,23,08,24,8.80
2018,04,23,08,25,8.90
2018,04,23,08,26,9.00
2018,04,23,08,27,9.20
2018,04,23,08,28,9.30
2018,04,23,08,29,9.30
2018,04,23,08,30,9.40
2018,04,23,08,31,9.50
2018,04,23,08,32,9.60
2018,04,23,08,33,9.70
2018,04,23,08,34,9.80
2018,04,23,08,35,9.80
2018,04,23,08,36,9.90
2018,04,23,08,37,10.10
2018,04,23,08,38,10.20
2018,04,23,08,39,10.30
2018,04,23,08,40,10.40
2018,04,23,08,41,10.50
2018,04,23,08,42,10.60
2018,04,23,08,43,10.60
2018,04,23,08,44,10.70
2018,04,23,08,45,10.80
2018,04,23,08,46,10.90
2018,04,23,08,47,10.90
2018,04,23,08,48,11.00
2018,04,23,08,49,11.00
2018,04,23,08,50,11.00
2018,04,23,08,51,11.00
2018,04,23,08,52,11.00
2018,04,23,08,53,11.10
2018,04,23,08,54,11.10
2018,04,23,08,55,11.10
2018,04,23,08,56,11.00
2018,04,23,08,57,11.00
2018,04,23,08,58,11.10
2018,04,23,08,59,11.10
2018,04,23,09,00,11.20
2018,04,23,09,01,11.20
2018,04,23,09,02,11.20
2018,04,23,09,03,11.30
2018,04,23,09,04,11.30
2018,04,23,09,05,11.30
2018,04,23,09,06,11.40
2018,04,23,09,07,11.40
2018,04,23,09,08,11.40
2018,04,23,09,09,11.50
2018,04,23,09,10,11.60
2018,04,23,09,11,11.60
2018,04,23,09,12,11.50
2018,04,23,09,13,11.50
2018,04,23,09,14,11.40
2018,04,23,09,15,11.40
2018,04,23,09,16,11.40
2018,04,23,09,17,11.40
2018,04,23,09,18,11.40
2018,04,23,09,19,11.40
2018,04,23,09,20,11.50
2018,04,23,09,21,11.60
2018,04,23,09,22,11.70
2018,04,23,09,23,11.80
2018,04,23,09,24,11.80
2018,04,23,09,25,11.80
2018,04,23,09,26,11.90
2018,04,23,09,27,11.90
2018,04,23,09,28,11.90
2018,04,23,09,29,11.80
2018,04,23,09,30,11.80
2018,04,23,09,31,11.80
2018,04,23,09,32,11.70
2018,04,23,09,33,11.60
2018,04,23,09,34,11.50
2018,04,23,09,35,11.40
2018,04,23,09,36,11.40
2018,04,23,09,37,11.50
2018,04,23,09,38,11.50
2018,04,23,09,39,11.60
2018,04,23,09,40,11.70
2018,04,23,09,41,11.70
2018,04,23,09,42,11.80
2018,04,23,09,43,12.00
2018,04,23,09,44,12.00
2018,04,23,09,45,12.00
2018,04,23,09,46,12.00
2018,04,23,09,47,12.00
2018,04,23,09,48,12.10
2018,04,23,09,49,12.20
2018,04,23,09,50,12.30
2018,04,23,09,51,12.40
2018,04,23,09,52,12.50
2018,04,23,09,53,12.50
2018,04,23,09,54,12.50
2018,04,23,09,55,12.60
2018,04,23,09,56,12.70
2018,04,23,09,57,12.70
2018,04,23,09,58,12.80
2018,04,23,09,59,12.80
2018,04,23,10,00,12.90
2018,04,23,10,01,12.80
2018,04,23,10,02,12.80
2018,04,23,10,03,12.70
2018,04,23,10,04,12.50
2018,04,23,10,05,12.50
2018,04,23,10,06,12.40
2018,04,23,10,07,12.40
2018,04,23,10,08,12.50
2018,04,23,10,09,12.50
2018,04,23,10,10,12.60
2018,04,23,10,11,12.60
2018,04,23,10,12,12.70
2018,04,23,10,13,12.80
2018,04,23,10,14,12.90
2018,04,23,10,15,13.10
2018,04,23,10,16,13.20
2018,04,23,10,17,13.30
2018,04,23,10,18,13.30
2018,04,23,10,19,13.40
2018,04,23,10,20,13.60
2018,04,23,10,21,13.60
2018,04,23,10,22,13.70
2018,04,23,10,23,13.80
2018,04,23,10,24,13.80
2018,04,23,10,25,13.90
2018,04,23,10,26,14.00
2018,04,23,10,27,13.90
2018,04,23,10,28,13.90
2018,04,23,10,29,13.80
2018,04,23,10,30,13.80
2018,04,23,10,31,13.80
2018,04,23,10,32,13.80
2018,04,23,10,33,13.80
2018,04,23,10,34,13.90
2018,04,23,10,35,13.90
2018,04,23,10,36,14.00
2018,04,23,10,37,14.00
2018,04,23,10,38,13.90
2018,04,23,10,39,13.90
2018,04,23,10,40,14.00
2018,04,23,10,41,14.00
2018,04,23,10,42,13.90
2018,04,23,10,43,14.00
2018,04,23,10,44,14.00
2018,04,23,10,45,14.00
2018,04,23,10,46,13.90
2018,04,23,10,47,13.90
2018,04,23,10,48,13.80
2018,04,23,10,49,13.80
2018,04,23,10,50,13.80
2018,04,23,10,51,13.80
2018,04,23,10,52,14.00
2018,04,23,10,53,14.10
2018,04,23,10,54,14.20
2018,04,23,10,55,14.40
2018,04,23,10,56,14.40
2018,04,23,10,57,14.40
2018,04,23,10,58,14.50
2018,04,23,10,59,14.50
2018,04,23,11,00,14.60
2018,04,23,11,01,14.60
2018,04,23,11,02,14.70
2018,04,23,11,03,14.80
2018,04,23,11,04,14.80
2018,04,23,11,05,14.90
2018,04,23,11,06,15.00
2018,04,23,11,07,15.10
2018,04,23,11,08,15.10
2018,04,23,11,09,15.20
2018,04,23,11,10,15.10
2018,04,23,11,11,15.20
2018,04,23,11,12,15.10
2018,04,23,11,13,15.10
2018,04,23,11,14,15.20
2018,04,23,11,15,15.20
2018,04,23,11,16,15.20
2018,04,23,11,17,15.20
2018,04,23,11,18,15.20
2018,04,23,11,19,15.10
2018,04,23,11,20,15.00
2018,04,23,11,21,14.90
2018,04,23,11,22,14.70
2018,04,23,11,23,14.70
2018,04,23,11,24,14.60
2018,04,23,11,25,14.60
2018,04,23,11,26,14.60
2018,04,23,11,27,14.50
2018,04,23,11,28,14.50
2018,04,23,11,29,14.60
2018,04,23,11,30,14.70
2018,04,23,11,31,14.80
2018,04,23,11,32,14.90
2018,04,23,11,33,15.00
2018,04,23,11,34,15.10
2018,04,23,11,35,15.10
2018,04,23,11,36,15.20
2018,04,23,11,37,15.40
2018,04,23,11,38,15.50
2018,04,23,11,39,15.60
2018,04,23,11,40,15.70
2018,04,23,11,41,15.80
2018,04,23,11,42,15.80
2018,04,23,11,43,15.70
2018,04,23,11,44,15.80
2018,04,23,11,45,15.70
2018,04,23,11,46,15.80
2018,04,23,11,47,15.80
2018,04,23,11,48,15.70
2018,04,23,11,49,15.80
2018,04,23,11,50,15.70
2018,04,23,11,51,15.70
2018,04,23,11,52,15.70
2018,04,23,11,53,15.70
2018,04,23,11,54,15.60
2018,04,23,11,55,15.60
2018,04,23,11,56,15.60
2018,04,23,11,57,15.70
2018,04,23,11,58,15.60
2018,04,23,11,59,15.60
2018,04,23,12,00,15.50
2018,04,23,12,01,15.50
2018,04,23,12,02,15.50
2018,04,23,12,03,15.60
2018,04,23,12,04,15.60
2018,04,23,12,05,15.60
2018,04,23,12,06,15.60
2018,04,23,12,07,15.60
2018,04,23,12,08,15.70
2018,04,23,12,09,15.70
2018,04,23,12,10,15.70
2018,04,23,12,11,15.70
2018,04,23,12,12,15.70
2018,04,23,12,13,15.90
2018,04,23,12,14,16.10
2018,04,23,12,15,16.20
2018,04,23,12,16,16.40
2018,04,23,12,17,16.50
2018,04,23,12,18,16.50
2018,04,23,12,19,16.40
2018,04,23,12,20,16.40
2018,04,23,12,21,16.40
2018,04,23,12,22,16.40
2018,04,23,12,23,16.50
2018,04,23,12,24,16.40
2018,04,23,12,25,16.30
2018,04,23,12,26,16.10
2018,04,23,12,27,15.80
2018,04,23,12,28,15.70
2018,04,23,12,29,15.70
2018,04,23,12,30,15.70
2018,04,23,12,31,15.70
2018,04,23,12,32,15.70
2018,04,23,12,33,15.70
2018,04,23,12,34,15.70
2018,04,23,12,35,15.60
2018,04,23,12,36,15.50
2018,04,23,12,37,15.40
2018,04,23,12,38,15.30
2018,04,23,12,39,15.20
2018,04,23,12,40,15.20
2018,04,23,12,41,15.20
2018,04,23,12,42,15.30
2018,04,23,12,43,15.30
2018,04,23,12,44,15.40
2018,04,23,12,45,15.40
2018,04,23,12,46,15.40
2018,04,23,12,47,15.40
2018,04,23,12,48,15.50
2018,04,23,12,49,15.60
2018,04,23,12,50,15.60
2018,04,23,12,51,15.50
2018,04,23,12,52,15.40
2018,04,23,12,53,15.40
2018,04,23,12,54,15.20
2018,04,23,12,55,15.10
2018,04,23,12,56,15.10
2018,04,23,12,57,15.10
2018,04,23,12,58,15.10
2018,04,23,12,59,15.20
2018,04,23,13,00,15.30
2018,04,23,13,01,15.30
2018,04,23,13,02,15.30
2018,04,23,13,03,15.20
2018,04,23,13,04,15.20
2018,04,23,13,05,15.20
2018,04,23,13,06,15.20
2018,04,23,13,07,15.20
2018,04,23,13,08,15.10
2018,04,23,13,09,15.10
2018,04,23,13,10,15.20
2018,04,23,13,11,15.20
2018,04,23,13,12,15.30
2018,04,23,13,13,15.40
2018,04,23,13,14,15.50
2018,04,23,13,15,15.50
2018,04,23,13,16,15.50
2018,04,23,13,17,15.40
2018,04,23,13,18,15.30
2018,04,23,13,19,15.40
2018,04,23,13,20,15.50
2018,04,23,13,21,15.60
2018,04,23,13,22,15.70
2018,04,23,13,23,15.80
2018,04,23,13,24,15.90
2018,04,23,13,25,16.00
2018,04,23,13,26,16.00
2018,04,23,13,27,15.90
2018,04,23,13,28,15.90
2018,04,23,13,29,15.80
2018,04,23,13,30,15.70
2018,04,23,13,31,15.70
2018,04,23,13,32,15.70
2018,04,23,13,33,15.70
2018,04,23,13,34,15.60
2018,04,23,13,35,15.50
2018,04,23,13,36,15.50
2018,04,23,13,37,15.40
2018,04,23,13,38,15.40
2018,04,23,13,39,15.40
2018,04,23,13,40,15.50
2018,04,23,13,41,15.60
2018,04,23,13,42,15.70
2018,04,23,13,43,15.80
2018,04,23,13,44,15.90
2018,04,23,13,45,16.00
2018,04,23,13,46,16.00
2018,04,23,13,47,15.90
2018,04,23,13,48,15.80
2018,04,23,13,49,15.80
2018,04,23,13,50,15.70
2018,04,23,13,51,15.70
2018,04,23,13,52,15.70
2018,04,23,13,53,15.70
2018,04,23,13,54,15.60
2018,04,23,13,55,15.50
2018,04,23,13,56,15.40
2018,04,23,13,57,15.50
2018,04,23,13,58,15.60
2018,04,23,13,59,15.70
2018,04,23,14,00,15.80
2018,04,23,14,01,15.80
2018,04,23,14,02,15.90
2018,04,23,14,03,15.90
2018,04,23,14,04,16.00
2018,04,23,14,05,16.10
2018,04,23,14,06,16.10
2018,04,23,14,07,16.10
2018,04,23,14,08,16.00
2018,04,23,14,09,16.00
2018,04,23,14,10,16.00
2018,04,23,14,11,16.10
2018,04,23,14,12,16.20
2018,04,23,14,13,16.20
2018,04,23,14,14,16.20
2018,04,23,14,15,16.30
2018,04,23,14,16,16.20
2018,04,23,14,17,16.10
2018,04,23,14,18,16.10
2018,04,23,14,19,16.10
2018,04,23,14,20,16.10
2018,04,23,14,21,16.20
2018,04,23,14,22,16.40
2018,04,23,14,23,16.50
2018,04,23,14,24,16.50
2018,04,23,14,25,16.30
2018,04,23,14,26,16.20
2018,04,23,14,27,16.10
2018,04,23,14,28,16.20
2018,04,23,14,29,16.30
2018,04,23,14,30,16.30
2018,04,23,14,31,16.40
2018,04,23,14,32,16.60
2018,04,23,14,33,16.70
2018,04,23,14,34,16.80
2018,04,23,14,35,16.80
2018,04,23,14,36,16.90
2018,04,23,14,37,16.90
2018,04,23,14,38,16.80
2018,04,23,14,39,16.80
2018,04,23,14,40,16.70
2018,04,23,14,41,16.60
2018,04,23,14,42,16.60
2018,04,23,14,43,16.60
2018,04,23,14,44,16.50
2018,04,23,14,45,16.50
2018,04,23,14,46,16.60
2018,04,23,14,47,16.70
2018,04,23,14,48,16.80
2018,04,23,14,49,16.80
2018,04,23,14,50,17.00
2018,04,23,14,51,17.20
2018,04,23,14,52,17.30
2018,04,23,14,53,17.30
2018,04,23,14,54,17.10
2018,04,23,14,55,17.00
2018,04,23,14,56,16.90
2018,04,23,14,57,16.80
2018,04,23,14,58,16.70
2018,04,23,14,59,16.60
2018,04,23,15,00,16.40
2018,04,23,15,01,16.30
2018,04,23,15,02,16.30
2018,04,23,15,03,16.20
2018,04,23,15,04,16.20
2018,04,23,15,05,16.20
2018,04,23,15,06,16.30
2018,04,23,15,07,16.40
2018,04,23,15,08,16.40
2018,04,23,15,09,16.50
2018,04,23,15,10,16.60
2018,04,23,15,11,16.70
2018,04,23,15,12,16.70
2018,04,23,15,13,16.80
2018,04,23,15,14,16.80
2018,04,23,15,15,16.80
2018,04,23,15,16,16.80
2018,04,23,15,17,16.70
2018,04,23,15,18,16.70
2018,04,23,15,19,16.70
2018,04,23,15,20,16.80
2018,04,23,15,21,16.90
2018,04,23,15,22,17.00
2018,04,23,15,23,17.00
2018,04,23,15,24,17.00
2018,04,23,15,25,16.90
2018,04,23,15,26,16.90
2018,04,23,15,27,17.00
2018,04,23,15,28,17.10
2018,04,23,15,29,17.20
2018,04,23,15,30,17.40
2018,04,23,15,31,17.50
2018,04,23,15,32,17.50
2018,04,23,15,33,17.40
2018,04,23,15,34,17.30
2018,04,23,15,35,17.20
2018,04,23,15,36,17.00
2018,04,23,15,37,16.90
2018,04,23,15,38,16.80
2018,04,23,15,39,16.80
2018,04,23,15,40,16.80
2018,04,23,15,41,16.90
2018,04,23,15,42,17.00
2018,04,23,15,43,17.10
2018,04,23,15,44,17.00
2018,04,23,15,45,16.90
2018,04,23,15,46,17.00
2018,04,23,15,47,17.00
2018,04,23,15,48,17.00
2018,04,23,15,49,17.10
2018,04,23,15,50,17.10
2018,04,23,15,51,17.20
2018,04,23,15,52,17.20
2018,04,23,15,53,17.20
2018,04,23,15,54,17.30
2018,04,23,15,55,17.30
2018,04,23,15,56,17.30
2018,04,23,15,57,17.40
2018,04,23,15,58,17.50
2018,04,23,15,59,17.60
2018,04,23,16,00,17.60
2018,04,23,16,01,17.70
2018,04,23,16,02,17.70
2018,04,23,16,03,17.70
2018,04,23,16,04,17.80
2018,04,23,16,05,17.90
2018,04,23,16,06,18.00
2018,04,23,16,07,18.00
2018,04,23,16,08,18.10
2018,04,23,16,09,18.10
2018,04,23,16,10,18.10
2018,04,23,16,11,18.10
2018,04,23,16,12,18.10
2018,04,23,16,13,18.20
2018,04,23,16,14,18.20
2018,04,23,16,15,18.20
2018,04,23,16,16,18.10
2018,04,23,16,17,18.10
2018,04,23,16,18,18.00
2018,04,23,16,19,17.90
2018,04,23,16,20,17.80
2018,04,23,16,21,17.70
2018,04,23,16,22,17.70
2018,04,23,16,23,17.70
2018,04,23,16,24,17.70
2018,04,23,16,25,17.80
2018,04,23,16,26,17.90
2018,04,23,16,27,17.90
2018,04,23,16,28,18.00
2018,04,23,16,29,18.20
2018,04,23,16,30,18.30
2018,04,23,16,31,18.40
2018,04,23,16,32,18.60
2018,04,23,16,33,18.60
2018,04,23,16,34,18.60
2018,04,23,16,35,18.50
2018,04,23,16,36,18.40
2018,04,23,16,37,18.30
2018,04,23,16,38,18.40
2018,04,23,16,39,18.40
2018,04,23,16,40,18.40
2018,04,23,16,41,18.30
2018,04,23,16,42,18.20
2018,04,23,16,43,18.20
2018,04,23,16,44,18.20
2018,04,23,16,45,18.10
2018,04,23,16,46,18.00
2018,04,23,16,47,18.00
2018,04,23,16,48,18.00
2018,04,23,16,49,17.90
2018,04,23,16,50,17.90
2018,04,23,16,51,17.90
2018,04,23,16,52,17.90
2018,04,23,16,53,18.00
2018,04,23,16,54,18.00
2018,04,23,16,55,18.00
2018,04,23,16,56,18.00
2018,04,23,16,57,17.90
2018,04,23,16,58,17.70
2018,04,23,16,59,17.70
2018,04,23,17,00,17.70
2018,04,23,17,01,17.70
2018,04,23,17,02,17.80
2018,04,23,17,03,17.80
2018,04,23,17,04,17.90
2018,04,23,17,05,17.90
2018,04,23,17,06,17.90
2018,04,23,17,07,17.80
2018,04,23,17,08,17.80
2018,04,23,17,09,17.90
2018,04,23,17,10,17.90
2018,04,23,17,11,17.90
2018,04,23,17,12,17.80
2018,04,23,17,13,17.80
2018,04,23,17,14,17.80
2018,04,23,17,15,17.80
2018,04,23,17,16,17.90
2018,04,23,17,17,17.90
2018,04,23,17,18,17.90
2018,04,23,17,19,17.90
2018,04,23,17,20,17.90
2018,04,23,17,21,17.90
2018,04,23,17,22,17.90
2018,04,23,17,23,17.90
2018,04,23,17,24,17.90
2018,04,23,17,25,18.00
2018,04,23,17,26,18.00
2018,04,23,17,27,18.00
2018,04,23,17,28,18.00
2018,04,23,17,29,18.10
2018,04,23,17,30,18.10
2018,04,23,17,31,18.10
2018,04,23,17,32,18.10
2018,04,23,17,33,18.10
2018,04,23,17,34,18.20
2018,04,23,17,35,18.20
2018,04,23,17,36,18.10
2018,04,23,17,37,18.10
2018,04,23,17,38,18.10
2018,04,23,17,39,18.00
2018,04,23,17,40,18.00
2018,04,23,17,41,18.00
2018,04,23,17,42,18.00
2018,04,23,17,43,18.00
2018,04,23,17,44,18.00